Dewpoint
54 54 55 55 55 56 56 56 56 56 56 56 56 56 55 54 53 53 51 50 51 49
54 54 54 55 55 56 56 56 55 55 56 56 56 56 56 55 55 55 54 53 53 51
54 53 53 54 54 54 55 55 53 54 55 55 56 56 56 55 55 55 55 55 54 53
54 53 52 52 53 53 53 53 52 52 53 54 55 55 55 54 54 54 54 54 53 52
54 54 53 52 51 52 52 52 53 53 52 52 53 54 54 53 52 52 52 53 52 51
54 54 53 53 53 51 52 52 52 52 53 53 52 52 53 53 52 51 51 51 50 51
54 54 54 54 54 53 52 51 51 51 51 51 53 53 53 52 52 52 52 53 52 51
50 55 55 55 55 55 54 53 52 51 51 51 51 51 51 52 52 52 51 51 51 51
41 43 44 45 47 54 55 55 54 53 52 51 51 50 49 49 50 51 51 51 51 51
35 36 37 40 41 42 43 45 47 51 54 54 53 53 50 48 49 50 49 49 49 50
31 32 34 35 35 37 39 42 43 44 44 43 40 34 34 37 48 51 51 51 51 51
29 30 31 31 33 34 36 39 39 36 35 32 32 32 34 35 39 48 51 52 53 52
28 28 29 29 31 33 35 35 34 30 29 28 29 30 32 34 38 41 45 49 34 33
26 27 27 28 29 30 31 29 29 27 27 27 28 28 29 31 33 36 31 29 29 29
Wind_Speed
12 12 11 12 10 13 13 13 14 14 15 15 15 16 16 13 13 10 10 10 10 13
12 13 11 12 12 11 10 11 13 15 17 16 17 16 18 18 20 16 16 15 11 13
11 13 13 13 12 12 10 11 13 14 15 16 16 16 16 16 18 22 19 17 18 17
11 10 13 15 15 12 12 12 16 18 17 15 16 17 17 18 17 19 18 20 21 24
10 10 13 15 16 15 14 12 12 13 17 18 18 19 21 20 18 19 21 23 23 27
11 13 14 14 14 16 17 19 17 16 16 16 18 20 22 25 25 24 26 26 28 28
12 13 14 12 13 14 15 17 19 20 20 21 20 20 20 22 24 26 26 27 29 29
15 6 10 12 14 14 15 16 16 17 19 20 22 23 24 25 24 24 25 25 26 27
14 13 12 14 16 6 14 18 19 20 21 21 21 23 29 29 26 27 28 29 29 28
15 13 13 12 11 12 12 12 13 10 14 19 22 24 29 33 30 29 29 30 30 31
15 13 13 13 13 12 12 12 12 13 15 14 12 30 25 21 24 30 33 32 32 32
15 14 14 14 13 12 12 11 12 14 15 18 17 28 24 19 13 19 29 30 29 31
15 16 16 14 13 12 11 12 11 14 15 18 17 28 26 21 9 12 14 11 19 24
16 16 16 15 14 13 12 12 12 14 14 15 19 23 30 30 15 8 15 18 19 22
Wind_Direction
184 179 179 188 190 194 194 187 182 178 170 180 189 188 184 184 175 184 202 216 223 231
179 183 181 183 181 179 181 188 180 182 175 175 174 177 178 193 209 210 221 224 236 243
181 181 182 178 182 187 186 181 174 182 179 180 182 183 182 189 193 198 207 211 218 232
192 185 183 188 194 191 185 183 175 178 179 186 196 194 202 206 200 202 209 214 217 229
207 202 200 195 194 192 199 200 192 181 183 191 196 203 210 217 219 215 219 223 225 228
207 212 219 218 206 199 199 203 203 206 203 202 205 208 212 215 219 220 223 226 229 229
212 213 219 220 218 211 203 206 210 213 215 217 218 217 219 220 224 227 228 228 231 231
24 241 231 219 220 222 218 222 219 219 224 226 225 226 227 228 228 230 234 237 237 236
29 27 28 29 29 308 238 231 230 231 232 229 231 233 229 228 234 239 241 243 243 243
27 28 17 14 24 17 1 356 10 334 270 252 247 247 238 233 233 239 238 240 245 249
24 21 17 19 15 13 4 5 0 358 360 359 18 3 358 346 254 244 244 245 246 247
26 24 20 15 8 12 6 10 22 33 25 19 11 5 357 348 319 270 250 248 248 246
28 27 23 16 13 9 25 35 44 50 43 36 26 14 10 358 310 298 303 323 35 19
35 37 29 24 18 22 45 57 55 57 44 36 29 27 29 25 28 26 65 55 44 35